Regional Weather Roundup
Issued by NWS

Home | Current Version | Previous Version | Graphics & Text | Print | Product List | Glossary On
Versions: 1 2 3 4 5 6 7 8 9 10 11 12 13 14 15 16 17 18 19 20 21 22 23 24 25 26 27 28 29 30 31 32 33 34 35 36 37 38 39 40 41 42 43 44 45 46 47 48 49 50
000
ASUS43 KBIS 101502
RWRND

NORTH DAKOTA REGIONAL WEATHER ROUNDUP
NATIONAL WEATHER SERVICE BISMARCK ND
900 AM CST SAT DEC 10 2016

NOTE: "FAIR" INDICATES FEW OR NO CLOUDS BELOW 12,000 FEET WITH NO
SIGNIFICANT WEATHER AND/OR OBSTRUCTIONS TO VISIBILITY.


NDZ001>003-009>011-017-101600-
NORTHWEST NORTH DAKOTA

CITY           SKY/WX    TMP DP  RH WIND       PRES   REMARKS
WILLISTON      CLOUDY    -7 -12  79 E6        30.18F WCI -20
MINOT          CLOUDY   -20 -25  77 CALM      30.29F
MINOT AFB      CLOUDY   -24 -30  75 S1        30.30F
$$

NDZ018>021-031>035-040>046-101600-
SOUTHWEST NORTH DAKOTA

CITY           SKY/WX    TMP DP  RH WIND       PRES   REMARKS
BISMARCK       CLOUDY   -17 -22  78 E6        30.33S WCI -32
DICKINSON      CLOUDY    -5 -10  79 SE16      30.09F WCI -27
GARRISON         N/A    -13 -17  82 E7        30.26F WCI -29
HETTINGER ARPT CLOUDY    -5  -9  83 SE12      30.10F FOG     WCI -23
$$

NDZ004>008-012>016-024-026-027-054-101600-
NORTHEAST NORTH DAKOTA

CITY           SKY/WX    TMP DP  RH WIND       PRES   REMARKS
GRAND FORKS    CLOUDY    -8 -14  74 N5        30.47F WCI -19
GRND FRKS AFB  CLOUDY   -13 -19  75 CALM      30.46F
DEVILS LAKE    CLOUDY   -16 -20  82 CALM      30.37F
$$

NDZ022-023-025-028>030-036>039-047>053-101600-
SOUTHEAST NORTH DAKOTA

CITY           SKY/WX    TMP DP  RH WIND       PRES   REMARKS
FARGO          CLOUDY    -4 -10  75 CALM      30.45F
JAMESTOWN      CLOUDY   -12 -16  82 CALM      30.35F
$$




USA.gov is the U.S. government's official web portal to all federal, state and local government web resources and services.